Torna al catalogo

STARLINK-34520

AttivoComunicazioniVLEO
NORAD 64486·PAYLOAD·🇺🇸 United States

Lanciato Jun 23, 2025 da Cape Canaveral Space Force Station

Loading…

Prossimi Passaggi (prossime 24 ore)

TLE

AggiornatoSource: CelesTrak SupGP

Epoca: Sep 15, 2026, 02:42 UTC

1 64486C 25133Q   26258.11298611  .00049385  00000+0  14603-2 0  2586
2 64486  53.1581 314.6892 0001485  90.9934 202.5239 15.34339479    10

Traccia STARLINK-34520 in tempo reale con AllMySat

Download on the App Store